TimeEET,TemperatureF,Dew PointF,Humidity,Sea Level PressureIn,VisibilityMPH,Wind Direction,Wind SpeedMPH,Gust SpeedMPH,PrecipitationIn,Events,Conditions,WindDirDegrees,DateUTC
12:50 AM,28.4,28.4,100,29.56,0.6,WSW,11.5,-,N/A,Snow,Light Snow,250,2012-12-04 22:50:00
1:50 AM,28.4,28.4,100,29.56,0.4,WSW,12.7,-,N/A,Snow,Light Snow,250,2012-12-04 23:50:00
2:00 AM,33,30,84,,6,West,4.6,,,Snow,Light Snow,270,2012-12-05 00:00:00
2:50 AM,28.4,28.4,100,29.56,3.1,West,12.7,-,N/A,Snow,Light Snow,260,2012-12-05 00:50:00
3:50 AM,28.4,26.6,93,29.59,1.2,West,12.7,-,N/A,Snow,Light Snow,260,2012-12-05 01:50:00
4:50 AM,28.4,26.6,93,29.62,1.9,West,12.7,-,N/A,Snow,Light Snow,270,2012-12-05 02:50:00
5:50 AM,28.4,26.6,93,29.65,1.6,West,11.5,-,N/A,Snow,Light Snow,280,2012-12-05 03:50:00
6:50 AM,28.4,26.6,93,29.65,1.6,West,12.7,-,N/A,Snow,Light Snow,270,2012-12-05 04:50:00
8:00 AM,32,29,85,,1,West,3.5,,,Snow,Light Snow,270,2012-12-05 06:00:00
8:50 AM,26.6,26.6,100,29.71,0.9,West,12.7,-,N/A,Snow,Light Snow,270,2012-12-05 06:50:00
9:50 AM,28.4,26.6,93,29.74,0.7,West,11.5,-,N/A,Snow,Light Snow,270,2012-12-05 07:50:00
10:50 AM,28.4,26.6,93,29.74,0.6,West,13.8,-,N/A,Snow,Light Snow,270,2012-12-05 08:50:00
11:50 AM,28.4,26.6,93,29.74,0.6,West,11.5,-,N/A,Snow,Light Snow,270,2012-12-05 09:50:00
12:50 PM,28.4,26.6,93,29.74,0.7,West,9.2,-,N/A,Snow,Light Snow,260,2012-12-05 10:50:00
1:50 PM,28.4,28.4,100,29.77,0.9,WSW,8.1,-,N/A,Snow,Light Snow,250,2012-12-05 11:50:00
2:00 PM,32,30,90,,1,West,2.3,,,Snow,Snow,260,2012-12-05 12:00:00
2:50 PM,28.4,28.4,100,29.77,0.9,SW,6.9,-,N/A,Snow,Light Snow,220,2012-12-05 12:50:00
4:50 PM,26.6,26.6,100,29.77,6.2,South,4.6,-,N/A,,Overcast,170,2012-12-05 14:50:00
5:50 PM,26.6,26.6,100,29.80,6.2,South,6.9,-,N/A,,Mostly Cloudy,190,2012-12-05 15:50:00
6:50 PM,24.8,23.0,93,29.80,6.2,SSE,6.9,-,N/A,,Mostly Cloudy,160,2012-12-05 16:50:00
7:50 PM,24.8,23.0,93,29.83,2.5,South,4.6,-,N/A,,Mostly Cloudy,170,2012-12-05 17:50:00
8:00 PM,30,26,80,,9,Calm,Calm,,,,Partly Cloudy,,2012-12-05 18:00:00
8:50 PM,19.4,17.6,93,29.83,2.5,SSE,8.1,-,N/A,,Mostly Cloudy,160,2012-12-05 18:50:00
9:50 PM,21.2,21.2,100,29.80,0.3,ESE,4.6,-,N/A,Fog,Light Freezing Fog,110,2012-12-05 19:50:00
10:50 PM,24.8,23.0,93,29.80,0.3,ESE,9.2,-,N/A,Fog,Light Freezing Fog,120,2012-12-05 20:50:00
11:50 PM,24.8,23.0,93,29.80,0.2,ESE,10.4,-,N/A,Fog,Light Freezing Fog,110,2012-12-05 21:50:00